Temp
-14 -14 -14 -14 -14 -15 -14 -14 -14 -14 -14 -14 -14 -14 -14 -14 -14 -14 -14 -14 -14 -14 -14 -14 -14 -14 -14 -15 -15 -15 -16 -16 -16 -17 -18 -18 -18 -19 -19 -19 -18 -18 -19 -19
-14 -14 -14 -14 -14 -14 -14 -14 -14 -14 -14 -14 -14 -14 -14 -14 -14 -14 -14 -14 -14 -14 -14 -14 -14 -14 -15 -15 -15 -16 -16 -16 -16 -17 -17 -17 -18 -18 -18 -18 -18 -18 -18 -18
-14 -14 -14 -14 -14 -14 -14 -14 -14 -14 -14 -14 -14 -14 -14 -14 -14 -14 -14 -14 -14 -14 -14 -14 -14 -15 -15 -15 -16 -16 -16 -16 -17 -17 -17 -18 -18 -18 -18 -18 -18 -18 -18 -18
-14 -14 -14 -14 -14 -15 -14 -14 -14 -14 -14 -15 -14 -14 -14 -14 -14 -14 -14 -14 -14 -14 -14 -14 -15 -15 -15 -16 -16 -17 -17 -17 -16 -17 -17 -17 -18 -17 -18 -18 -18 -19 -18 -18
-14 -14 -14 -14 -14 -14 -14 -14 -14 -14 -14 -14 -15 -15 -14 -14 -14 -14 -14 -14 -14 -14 -14 -14 -15 -15 -15 -16 -16 -17 -17 -17 -17 -17 -17 -17 -18 -17 -18 -18 -18 -18 -18 -19
-14 -14 -14 -14 -15 -15 -14 -14 -15 -15 -15 -14 -15 -15 -15 -15 -14 -14 -14 -14 -14 -14 -14 -15 -15 -15 -16 -16 -16 -17 -18 -18 -17 -17 -18 -17 -17 -18 -18 -18 -18 -18 -18 -19
-15 -14 -14 -15 -15 -15 -15 -14 -15 -15 -15 -15 -15 -15 -15 -15 -15 -14 -14 -14 -14 -14 -15 -15 -15 -15 -16 -16 -16 -17 -19 -19 -18 -18 -18 -18 -17 -18 -18 -18 -18 -18 -19 -19
-15 -15 -15 -15 -15 -15 -14 -15 -15 -15 -15 -15 -15 -15 -15 -15 -15 -15 -14 -14 -14 -15 -15 -15 -15 -15 -16 -16 -17 -18 -19 -20 -20 -20 -19 -19 -18 -18 -18 -18 -18 -18 -18 -19
-15 -15 -15 -15 -15 -15 -15 -15 -15 -15 -15 -15 -15 -15 -15 -15 -15 -15 -15 -14 -15 -15 -15 -15 -16 -16 -16 -17 -18 -19 -20 -21 -21 -19 -19 -19 -19 -18 -18 -18 -18 -18 -18 -18
-15 -15 -15 -15 -15 -15 -15 -15 -15 -15 -15 -15 -15 -15 -15 -15 -15 -15 -14 -15 -15 -15 -15 -16 -16 -16 -18 -19 -20 -21 -22 -22 -21 -20 -20 -19 -19 -19 -18 -18 -18 -18 -18 -18
-15 -15 -15 -15 -15 -15 -15 -15 -15 -15 -15 -16 -15 -15 -15 -15 -15 -15 -15 -15 -15 -15 -16 -16 -16 -18 -20 -21 -23 -24 -24 -22 -21 -20 -20 -19 -19 -19 -18 -18 -18 -18 -18 -18
-15 -15 -15 -15 -15 -15 -15 -15 -15 -15 -16 -16 -16 -15 -16 -15 -15 -15 -15 -15 -15 -16 -16 -16 -17 -19 -21 -23 -25 -24 -23 -21 -21 -20 -20 -19 -19 -19 -19 -18 -18 -18 -18 -18
-15 -15 -15 -15 -15 -15 -16 -15 -15 -15 -16 -16 -16 -16 -16 -15 -15 -15 -15 -15 -15 -15 -16 -16 -19 -20 -21 -22 -23 -22 -22 -21 -21 -20 -19 -19 -19 -19 -19 -18 -18 -18 -18 -18
-16 -16 -16 -16 -16 -16 -16 -15 -15 -16 -16 -16 -16 -16 -16 -15 -15 -15 -15 -16 -16 -16 -16 -18 -19 -20 -21 -22 -22 -21 -21 -20 -20 -19 -19 -19 -19 -19 -19 -18 -18 -18 -18 -18
-16 -16 -16 -16 -16 -16 -16 -16 -16 -16 -16 -16 -16 -16 -15 -15 -15 -15 -16 -16 -16 -16 -16 -18 -19 -19 -19 -20 -20 -20 -20 -19 -19 -19 -19 -19 -19 -19 -19 -19 -18 -18 -18 -18
-16 -16 -16 -16 -16 -16 -16 -16 -16 -16 -16 -16 -16 -16 -16 -16 -15 -16 -16 -16 -16 -16 -17 -18 -18 -18 -19 -18 -18 -19 -19 -19 -19 -19 -19 -19 -19 -19 -19 -19 -18 -18 -18 -18
-16 -16 -16 -16 -16 -16 -17 -16 -16 -16 -16 -16 -16 -16 -16 -16 -16 -16 -16 -16 -16 -17 -17 -17 -18 -18 -19 -18 -18 -18 -18 -18 -19 -19 -19 -19 -19 -19 -19 -19 -18 -18 -18 -18
-17 -17 -17 -17 -17 -17 -17 -17 -17 -17 -17 -17 -17 -16 -16 -16 -16 -16 -16 -16 -17 -17 -17 -17 -18 -18 -18 -19 -18 -18 -18 -18 -18 -19 -19 -19 -19 -19 -19 -18 -18 -18 -18 -18
-17 -17 -17 -17 -17 -17 -17 -17 -17 -17 -17 -17 -17 -17 -17 -16 -16 -16 -16 -16 -17 -17 -17 -17 -17 -18 -18 -18 -19 -18 -18 -18 -18 -18 -18 -19 -19 -19 -19 -18 -18 -18 -18 -18
-17 -17 -17 -17 -17 -17 -17 -17 -17 -17 -17 -17 -17 -17 -17 -17 -17 -16 -17 -17 -17 -17 -17 -17 -17 -17 -18 -18 -19 -19 -19 -19 -18 -18 -18 -19 -19 -19 -19 -18 -18 -18 -18 -18
-17 -17 -18 -17 -17 -17 -17 -17 -17 -17 -17 -17 -17 -17 -17 -17 -17 -17 -17 -17 -17 -17 -18 -18 -18 -18 -18 -19 -19 -19 -19 -19 -19 -19 -18 -18 -19 -18 -18 -18 -18 -18 -18 -18
-18 -18 -18 -18 -18 -18 -18 -18 -18 -17 -17 -17 -17 -17 -17 -17 -17 -17 -17 -17 -17 -17 -18 -18 -18 -18 -18 -18 -19 -19 -19 -19 -19 -19 -19 -18 -19 -18 -18 -18 -18 -18 -19 -18
-18 -18 -18 -18 -18 -17 -17 -17 -18 -18 -18 -18 -18 -18 -18 -17 -17 -17 -17 -17 -17 -18 -18 -18 -18 -19 -18 -18 -19 -20 -20 -19 -19 -19 -19 -19 -19 -19 -19 -18 -18 -18 -19 -19
-18 -18 -19 -18 -18 -18 -18 -18 -18 -18 -18 -18 -18 -18 -18 -18 -18 -18 -18 -18 -17 -18 -18 -18 -18 -19 -19 -19 -19 -19 -19 -20 -20 -19 -19 -19 -19 -19 -19 -19 -19 -18 -19 -19
-19 -19 -19 -18 -18 -18 -18 -18 -18 -18 -18 -18 -18 -18 -18 -18 -18 -18 -18 -18 -18 -18 -18 -18 -18 -19 -19 -19 -19 -19 -19 -19 -20 -20 -20 -20 -19 -19 -19 -19 -19 -19 -19 -19
-19 -19 -19 -19 -19 -19 -19 -19 -19 -19 -19 -19 -19 -19 -19 -18 -18 -18 -18 -18 -18 -18 -18 -18 -19 -19 -19 -19 -20 -19 -19 -19 -20 -20 -20 -20 -20 -20 -20 -20 -20 -19 -19 -19
-19 -20 -20 -20 -19 -19 -19 -19 -19 -19 -19 -19 -19 -19 -19 -19 -19 -19 -19 -19 -19 -19 -19 -19 -19 -19 -19 -20 -20 -20 -20 -20 -19 -20 -20 -21 -20 -20 -20 -20 -20 -20 -20 -20
Height
5717 5722 5729 5735 5741 5746 5752 5754 5758 5759 5760 5763 5764 5765 5765 5767 5767 5767 5768 5768 5768 5767 5767 5765 5763 5760 5756 5752 5748 5743 5738 5731 5723 5717 5711 5707 5706 5705 5704 5702 5703 5703 5704 5706
5714 5721 5728 5734 5739 5746 5750 5753 5756 5757 5759 5761 5763 5764 5764 5765 5765 5766 5766 5766 5766 5766 5764 5763 5760 5756 5752 5748 5744 5739 5735 5730 5725 5720 5718 5714 5712 5710 5707 5706 5706 5706 5706 5707
5712 5720 5727 5733 5738 5745 5748 5751 5754 5756 5758 5760 5761 5763 5763 5764 5764 5764 5764 5764 5764 5763 5761 5759 5755 5751 5748 5743 5740 5736 5732 5729 5725 5723 5720 5717 5716 5713 5711 5711 5709 5709 5708 5708
5710 5718 5725 5732 5737 5743 5747 5750 5752 5755 5757 5758 5760 5762 5762 5762 5762 5762 5763 5762 5762 5760 5758 5754 5750 5747 5743 5738 5735 5731 5729 5727 5724 5722 5721 5719 5717 5716 5714 5713 5711 5712 5711 5709
5709 5717 5723 5729 5735 5741 5746 5749 5751 5753 5756 5757 5759 5760 5760 5761 5761 5761 5760 5760 5759 5756 5754 5750 5745 5741 5736 5733 5729 5725 5722 5723 5721 5720 5719 5719 5719 5717 5715 5713 5714 5713 5713 5712
5706 5714 5721 5728 5735 5740 5744 5747 5749 5752 5754 5756 5758 5758 5759 5759 5759 5758 5758 5758 5756 5753 5750 5745 5740 5734 5729 5725 5721 5716 5714 5714 5715 5716 5715 5717 5718 5718 5716 5717 5716 5717 5715 5714
5704 5712 5720 5726 5733 5739 5742 5746 5748 5751 5754 5755 5756 5757 5758 5757 5756 5756 5756 5755 5753 5750 5745 5739 5733 5726 5720 5713 5708 5704 5702 5704 5707 5709 5710 5713 5716 5718 5720 5719 5719 5719 5718 5716
5702 5710 5718 5725 5731 5736 5741 5744 5747 5750 5752 5753 5754 5756 5756 5756 5755 5755 5754 5752 5750 5746 5740 5733 5725 5716 5708 5699 5692 5689 5689 5694 5699 5705 5708 5711 5713 5718 5720 5721 5722 5722 5721 5719
5701 5708 5716 5723 5730 5736 5740 5743 5746 5749 5752 5753 5754 5754 5755 5754 5754 5753 5752 5750 5747 5742 5735 5727 5716 5706 5693 5682 5676 5673 5674 5682 5692 5700 5706 5709 5712 5716 5719 5721 5725 5725 5725 5722
5698 5707 5714 5722 5729 5735 5739 5741 5745 5748 5750 5751 5753 5754 5754 5753 5753 5752 5751 5749 5744 5738 5731 5721 5710 5696 5681 5670 5660 5657 5661 5673 5686 5695 5704 5710 5713 5716 5719 5724 5729 5727 5727 5726
5697 5705 5713 5721 5728 5733 5737 5740 5743 5747 5749 5750 5752 5753 5752 5752 5751 5751 5750 5747 5742 5735 5727 5716 5702 5687 5674 5662 5654 5652 5659 5673 5686 5697 5705 5711 5713 5717 5722 5725 5728 5729 5730 5729
5695 5704 5713 5720 5727 5733 5736 5738 5743 5746 5749 5749 5751 5751 5752 5752 5751 5751 5748 5746 5741 5734 5725 5712 5698 5686 5676 5667 5663 5665 5672 5683 5690 5699 5708 5712 5716 5720 5723 5726 5730 5732 5733 5732
5693 5703 5711 5718 5725 5730 5734 5738 5742 5745 5746 5749 5750 5751 5751 5751 5751 5750 5748 5745 5740 5733 5724 5711 5700 5691 5684 5681 5679 5681 5685 5692 5699 5706 5712 5716 5719 5722 5725 5729 5732 5734 5735 5735
5692 5702 5710 5717 5724 5728 5733 5737 5740 5744 5746 5747 5749 5750 5751 5751 5751 5750 5748 5744 5739 5734 5725 5715 5707 5701 5698 5695 5695 5697 5700 5705 5708 5713 5717 5720 5722 5725 5729 5732 5734 5736 5738 5738
5692 5700 5708 5715 5722 5727 5732 5736 5739 5742 5747 5746 5748 5749 5750 5751 5751 5750 5747 5743 5740 5735 5728 5722 5718 5712 5712 5710 5710 5711 5712 5714 5717 5720 5723 5724 5726 5729 5732 5734 5737 5739 5740 5741
5691 5699 5707 5713 5720 5726 5730 5734 5738 5741 5744 5746 5747 5749 5750 5751 5751 5750 5747 5744 5742 5738 5733 5729 5726 5722 5723 5722 5722 5721 5722 5723 5724 5726 5728 5729 5731 5733 5735 5737 5738 5740 5742 5743
5689 5697 5705 5712 5719 5725 5728 5733 5737 5740 5742 5744 5747 5748 5749 5750 5750 5750 5747 5745 5743 5740 5736 5733 5731 5730 5728 5728 5727 5727 5728 5728 5729 5731 5731 5732 5732 5734 5737 5738 5740 5742 5744 5745
5689 5697 5704 5711 5718 5722 5726 5730 5734 5738 5741 5744 5745 5747 5749 5749 5750 5749 5747 5746 5744 5741 5740 5737 5734 5733 5732 5732 5731 5731 5731 5732 5733 5734 5734 5735 5735 5737 5738 5740 5742 5744 5746 5747
5687 5695 5701 5709 5715 5720 5724 5728 5733 5736 5740 5742 5744 5746 5748 5748 5748 5748 5747 5746 5745 5743 5741 5739 5737 5735 5734 5735 5734 5733 5734 5735 5735 5736 5736 5737 5737 5739 5740 5742 5743 5745 5747 5748
5686 5694 5700 5706 5712 5717 5722 5726 5730 5734 5737 5740 5742 5745 5746 5748 5748 5747 5748 5746 5745 5743 5743 5742 5739 5737 5735 5735 5736 5737 5736 5736 5736 5737 5737 5737 5738 5739 5741 5742 5744 5746 5747 5749
5684 5692 5699 5705 5710 5715 5719 5723 5728 5732 5735 5738 5740 5743 5744 5746 5747 5747 5747 5746 5745 5744 5743 5742 5740 5739 5737 5735 5736 5737 5737 5738 5738 5738 5738 5738 5739 5740 5741 5742 5744 5746 5747 5748
5683 5691 5697 5702 5706 5711 5716 5720 5725 5729 5733 5735 5738 5741 5743 5744 5745 5745 5746 5746 5745 5744 5743 5742 5741 5740 5738 5736 5736 5736 5737 5737 5738 5738 5739 5739 5739 5740 5740 5741 5742 5744 5746 5748
5680 5686 5692 5698 5702 5707 5712 5717 5723 5726 5729 5732 5735 5738 5740 5741 5743 5744 5744 5745 5744 5743 5742 5742 5741 5740 5739 5738 5737 5736 5737 5737 5738 5738 5738 5739 5739 5739 5739 5740 5741 5742 5743 5745
5677 5684 5690 5694 5698 5705 5711 5716 5719 5723 5726 5729 5732 5735 5738 5739 5740 5741 5742 5743 5743 5741 5741 5740 5739 5739 5739 5739 5738 5736 5736 5736 5736 5736 5736 5737 5737 5738 5737 5737 5739 5739 5740 5742
5676 5682 5686 5691 5698 5703 5708 5712 5716 5719 5722 5726 5729 5732 5735 5736 5737 5738 5739 5740 5740 5739 5739 5739 5737 5736 5736 5736 5736 5735 5734 5733 5733 5734 5734 5733 5734 5735 5735 5736 5735 5735 5737 5738
5673 5679 5684 5690 5695 5700 5704 5708 5712 5715 5718 5721 5725 5728 5730 5732 5734 5735 5735 5736 5736 5736 5736 5736 5734 5733 5733 5732 5732 5732 5732 5730 5729 5729 5730 5730 5730 5730 5730 5731 5732 5732 5732 5734
5670 5675 5682 5687 5691 5695 5699 5703 5708 5711 5714 5717 5719 5723 5725 5728 5728 5730 5731 5731 5731 5731 5730 5731 5730 5729 5728 5727 5727 5727 5727 5726 5725 5724 5724 5724 5725 5725 5725 5726 5726 5727 5727 5728
Wind_Speed
33 30 29 29 29 27 22 17 14 11 11 10 8 6 3 3 4 5 7 6 5 6 8 11 16 21 24 26 28 31 32 36 31 23 20 17 14 9 9 12 16 11 11 7
33 32 31 30 29 25 20 16 13 12 11 9 8 5 3 3 4 6 5 5 5 8 11 15 20 23 25 27 29 30 31 31 21 15 15 15 11 10 8 13 16 14 12 5
35 35 33 31 29 25 20 14 13 12 11 9 7 4 3 3 4 5 4 5 6 9 13 18 22 25 27 28 29 28 29 26 14 7 6 9 8 9 11 10 10 11 9 8
37 36 35 32 28 24 19 14 12 11 9 9 7 6 4 4 5 7 7 6 8 11 16 21 25 28 29 29 29 28 27 18 11 1 3 1 4 6 7 4 9 12 11 10
38 37 36 32 28 24 18 14 11 10 8 8 7 6 4 5 6 7 8 8 10 14 20 25 29 29 31 32 33 32 30 13 8 6 5 2 5 11 10 9 17 14 12 12
40 39 37 33 29 24 17 12 10 8 8 7 6 5 4 5 7 7 7 9 12 17 23 29 30 33 36 38 38 38 28 11 8 13 14 10 5 8 11 18 14 13 14 14
40 40 38 34 29 24 17 12 10 8 7 7 5 3 4 5 8 5 7 10 14 21 27 30 33 38 42 45 47 40 23 17 19 22 18 16 12 17 14 13 15 14 14 15
41 40 38 34 28 23 17 12 9 8 7 7 5 2 3 6 6 4 6 11 18 24 28 34 39 45 51 52 42 27 15 24 22 22 20 17 17 15 11 15 14 14 16 17
41 38 36 32 27 23 17 13 11 9 8 7 4 1 3 5 4 5 9 15 21 26 31 38 46 52 53 42 35 25 16 32 27 28 25 18 14 13 17 18 15 16 17 21
40 38 34 31 27 24 18 13 11 9 9 7 2 1 3 4 4 8 13 17 23 28 35 43 49 51 44 36 27 11 24 34 29 27 25 18 16 19 23 22 19 18 20 26
40 37 34 31 27 23 18 13 11 9 8 5 3 1 3 4 6 9 14 20 25 31 39 46 51 43 33 25 11 9 24 32 36 29 25 19 19 26 24 23 21 20 20 24
40 37 34 31 26 22 17 14 12 10 7 5 3 0 3 5 6 11 15 20 26 33 41 48 45 31 26 25 24 26 30 31 35 29 24 21 22 24 24 23 22 20 18 19
39 36 33 30 26 22 18 14 12 10 6 4 3 0 3 4 7 11 16 21 27 34 42 44 31 26 27 28 29 28 26 29 31 25 22 20 18 22 22 22 21 19 17 16
38 35 33 30 27 22 18 15 12 10 6 5 4 1 2 4 7 11 16 21 28 35 43 34 30 32 32 30 28 29 30 24 22 25 21 17 17 20 21 20 19 18 15 12
37 36 33 29 26 22 17 15 13 10 7 5 4 2 1 3 6 11 16 21 27 34 39 25 26 33 30 30 27 26 22 23 24 17 16 14 14 18 16 17 16 15 14 11
37 35 33 29 25 22 19 16 14 11 8 6 4 2 1 2 6 11 15 20 25 31 35 21 16 25 25 25 20 20 16 15 11 11 10 8 8 13 10 14 15 13 12 11
37 35 32 28 26 23 20 18 15 12 9 8 6 4 3 2 6 10 13 18 22 29 32 25 10 11 16 17 17 15 15 14 13 10 7 6 8 10 12 14 14 12 11 10
36 34 31 28 26 23 21 19 16 13 10 8 6 5 3 2 5 9 12 16 19 25 27 29 14 8 9 8 11 11 11 10 9 7 7 5 6 7 7 12 12 11 9 9
36 34 31 28 27 24 21 20 18 14 10 9 7 6 4 4 4 7 10 14 17 21 24 26 25 9 6 5 3 7 7 8 7 5 3 2 7 11 3 9 11 10 9 8
35 33 30 29 27 24 23 22 19 15 12 11 9 7 6 6 4 6 9 12 15 19 20 23 25 20 5 5 5 1 5 6 5 4 2 3 5 9 4 10 11 10 10 9
34 32 29 27 26 25 24 22 20 16 13 11 10 8 8 7 6 6 7 10 13 17 18 21 22 22 18 6 4 6 4 3 1 1 2 3 8 6 5 9 11 10 9 10
33 31 30 30 28 27 26 24 22 18 15 13 12 10 10 9 8 8 7 8 11 14 17 19 17 18 19 14 5 4 9 8 6 4 3 2 6 11 9 8 12 12 11 10
36 35 34 32 30 28 27 24 22 19 17 15 14 12 10 9 9 9 7 7 9 11 14 17 17 16 16 13 8 3 4 10 12 9 7 5 4 9 11 15 13 15 14 13
37 36 33 32 30 27 24 23 23 22 19 18 16 14 13 10 9 8 6 5 7 11 13 14 16 16 15 13 9 6 5 5 8 12 12 10 9 7 6 15 19 17 18 17
36 33 31 29 25 24 24 23 24 22 21 20 19 17 16 14 12 10 9 9 9 11 13 14 15 16 17 13 8 5 8 14 15 11 12 13 15 15 13 11 15 23 21 20
34 31 29 25 24 24 24 25 25 24 23 22 22 20 18 18 16 14 15 15 14 15 16 15 15 17 19 18 13 5 7 12 13 18 18 16 17 17 18 16 16 17 23 27
34 31 28 26 25 26 27 26 25 25 24 25 25 22 21 21 19 18 18 18 18 19 19 17 17 19 19 20 17 11 11 13 14 15 14 22 22 23 22 21 21 21 22 24
Wind_Direction
187 186 186 181 175 177 183 188 199 202 189 178 177 188 194 229 259 282 296 259 273 284 304 319 321 324 325 325 328 335 349 360 1 13 43 59 78 86 59 80 116 97 108 67
186 185 180 178 174 180 185 191 191 183 179 174 183 190 207 254 274 295 267 255 282 292 310 316 319 321 322 323 328 336 352 4 9 35 63 74 77 31 67 103 102 95 100 36
184 182 179 176 175 180 179 178 180 180 179 187 189 208 235 280 291 295 253 271 296 305 314 320 321 322 321 321 326 336 353 5 15 22 68 87 54 56 103 100 84 105 91 60
182 180 177 174 175 181 178 178 174 177 189 192 202 226 252 277 288 298 254 278 299 314 322 324 323 319 316 318 326 335 346 1 5 346 7 15 8 52 80 73 103 105 84 55
181 180 176 174 178 181 180 179 175 181 192 199 209 226 259 283 301 298 254 275 295 315 323 322 320 318 316 321 325 328 330 332 339 229 218 219 91 42 74 82 116 98 77 48
182 180 177 177 181 181 179 177 172 183 197 201 203 229 274 297 311 290 269 281 302 316 321 319 319 317 317 318 322 320 311 279 276 201 189 169 138 83 84 118 104 97 70 48
182 181 179 180 184 185 183 186 179 189 195 202 203 246 291 314 321 302 292 300 317 321 319 319 317 317 317 320 318 311 292 230 219 206 193 169 149 115 112 107 116 92 72 54
184 182 181 183 187 186 190 187 180 184 201 200 202 248 316 335 326 312 320 332 324 322 324 321 319 320 321 318 311 303 272 211 206 190 177 166 148 134 123 126 118 102 79 60
184 182 183 184 188 190 190 181 177 187 205 203 206 277 338 334 336 355 347 329 328 327 327 325 327 328 322 318 312 293 232 196 189 180 174 178 154 158 147 142 132 107 88 74
182 182 181 184 189 190 188 180 181 197 212 205 190 204 330 354 8 359 339 333 333 331 331 333 332 330 328 325 318 280 195 187 177 186 185 173 157 153 149 143 134 117 99 85
181 181 181 184 189 191 181 178 186 198 213 180 172 228 356 14 20 349 342 338 337 338 338 338 340 341 344 350 25 114 162 164 165 169 166 163 159 153 148 147 140 125 110 100
180 181 183 185 188 189 176 179 188 201 205 173 173 214 352 23 5 347 346 341 343 343 343 347 350 358 20 47 79 103 123 149 167 151 152 150 147 151 149 150 147 135 122 112
179 182 184 184 189 185 178 184 191 201 193 175 168 69 18 14 353 353 346 343 347 348 355 0 12 34 54 74 89 106 120 143 157 141 137 146 148 152 152 155 154 146 137 124
180 183 185 184 190 184 183 188 190 200 191 173 171 99 38 8 353 353 346 351 351 360 14 19 47 60 69 77 88 101 113 123 133 127 131 133 155 159 155 159 158 159 151 139
182 185 185 187 191 188 188 191 191 196 189 170 168 115 75 347 351 350 352 355 359 12 25 38 67 69 68 76 95 105 97 110 122 116 114 120 144 160 161 163 162 163 167 160
184 185 186 189 193 194 193 191 190 193 186 180 172 160 197 323 345 352 355 357 5 20 31 43 75 87 85 87 81 87 97 109 114 123 139 137 150 169 164 172 170 164 169 172
185 186 188 190 196 196 190 188 188 194 192 185 184 184 206 296 337 349 359 360 9 26 34 38 73 88 95 85 80 80 87 100 108 111 115 114 132 147 162 174 175 170 164 162
186 188 189 192 199 196 192 188 191 194 199 199 191 197 213 262 322 348 357 358 9 30 36 39 49 103 110 105 91 90 99 102 101 78 75 98 130 132 156 172 177 177 165 160
186 188 189 195 198 195 194 192 192 196 198 202 205 207 228 256 306 336 350 357 12 20 30 37 41 61 140 168 116 105 105 123 121 96 75 64 171 191 126 178 181 183 181 177
188 189 192 197 198 196 196 195 195 199 200 205 210 213 220 239 279 324 343 359 10 23 28 28 38 41 49 195 190 111 129 106 103 108 104 89 154 163 199 186 190 193 198 201
190 192 195 199 201 200 200 198 199 201 203 210 212 215 223 229 259 296 324 354 3 13 23 28 28 34 40 56 171 195 210 207 133 71 61 140 173 200 204 190 196 201 210 221
192 195 200 202 201 203 203 201 200 202 206 209 210 218 225 230 249 268 290 328 352 6 9 19 30 32 30 33 57 177 212 238 252 268 281 287 202 210 225 214 206 209 215 229
196 201 203 204 204 205 206 204 203 205 208 211 213 217 225 236 246 253 279 307 328 344 354 7 19 30 34 28 22 38 199 222 239 255 267 266 274 223 222 236 226 217 220 227
200 204 206 206 208 208 208 202 205 208 212 215 218 222 223 230 239 245 267 297 315 324 335 345 356 8 19 22 13 306 295 256 242 242 253 258 261 271 258 237 236 236 226 227
204 206 209 210 211 211 207 205 208 212 216 220 222 225 227 226 234 246 266 284 301 320 323 324 333 344 350 357 1 333 288 269 270 267 254 249 254 261 267 266 247 239 242 235
204 209 212 209 208 208 206 207 210 216 222 224 226 228 228 232 242 257 269 281 292 306 316 312 313 323 329 332 333 283 274 278 279 261 260 264 263 257 258 257 258 257 250 243
207 208 207 207 209 208 209 211 217 225 229 228 229 233 240 245 250 261 269 277 285 296 303 301 300 306 312 315 319 295 268 262 266 278 272 250 251 259 262 259 257 255 253 252